TOM2FT LGKO-EGCC

Flight info

Callsign TOM2FT
Flight time N/A
Altitude 36000
Route LARKI UL609 MES DCT KOROS DCT DISOR DCT LONTA UL608 DOLEV DCT YUYUH DCT GENLU DCT PODOB DCT BOSNA DCT MARIL DCT KUSIB DCT GORPA DCT MODSA DCT BABEG DCT LIRSU DCT DENUT L610 LAM UN57 WELIN T420 ELVOS
Aircraft B738/M-SDE2E3FGHIRWXY/LB1

Departure

Time 2026-05-07 18:13
Airport Kos International Airport "Ippokratis" (LGKO)

Arrival

Time N/A
Airport Manchester Airport (EGCC)
Time Latitude Longitude Altitude Speed Heading
2026-05-07 17:56 36.80045 27.09010 418 ft 0 kts 58°
2026-05-07 18:04 36.80043 27.09006 418 ft 3 kts 58°
2026-05-07 18:05 36.80029 27.08976 416 ft 4 kts 66°
2026-05-07 18:05 36.80021 27.08945 413 ft 4 kts 84°
2026-05-07 18:05 36.80024 27.08915 418 ft 4 kts 133°
2026-05-07 18:05 36.80028 27.08909 418 ft 1 kts 147°
2026-05-07 18:09 36.80016 27.08919 415 ft 7 kts 147°
2026-05-07 18:09 36.79949 27.08972 410 ft 13 kts 151°
2026-05-07 18:10 36.79875 27.08986 418 ft 11 kts 176°
2026-05-07 18:10 36.79798 27.08985 409 ft 13 kts 182°
2026-05-07 18:10 36.79683 27.08990 409 ft 19 kts 179°
2026-05-07 18:10 36.79543 27.09050 411 ft 26 kts 147°
2026-05-07 18:11 36.79381 27.09178 410 ft 29 kts 148°
2026-05-07 18:11 36.79256 27.09276 407 ft 33 kts 148°
2026-05-07 18:11 36.78965 27.09502 392 ft 41 kts 148°
2026-05-07 18:11 36.78730 27.09688 392 ft 29 kts 147°
2026-05-07 18:12 36.78606 27.09805 389 ft 20 kts 119°
2026-05-07 18:12 36.78568 27.09806 387 ft 2 kts 283°
2026-05-07 18:12 36.78578 27.09792 388 ft 3 kts 324°
2026-05-07 18:12 36.78601 27.09778 389 ft 4 kts 329°
2026-05-07 18:13 36.78783 27.09635 393 ft 69 kts 328°
2026-05-07 18:13 36.79392 27.09163 412 ft 137 kts 328°
2026-05-07 18:13 36.80334 27.08455 729 ft 167 kts 329°
2026-05-07 18:13 36.81287 27.07630 1418 ft 171 kts 308°
2026-05-07 18:14 36.81712 27.06203 1821 ft 192 kts 271°
2026-05-07 18:14 36.81593 27.04434 2062 ft 217 kts 273°
2026-05-07 18:14 36.82185 27.02638 2348 ft 236 kts 307°
2026-05-07 18:14 36.83232 27.00919 2669 ft 258 kts 306°
2026-05-07 18:15 36.84262 26.99095 3462 ft 261 kts 304°
2026-05-07 18:15 36.85277 26.97204 4304 ft 264 kts 303°
2026-05-07 18:15 36.86279 26.95265 5103 ft 268 kts 302°
2026-05-07 18:15 36.87277 26.93286 5918 ft 270 kts 302°
2026-05-07 18:16 36.88275 26.91271 6665 ft 275 kts 302°
2026-05-07 18:16 36.89280 26.89218 7399 ft 277 kts 302°
2026-05-07 18:16 36.90298 26.87134 8193 ft 281 kts 302°
2026-05-07 18:16 36.91325 26.85032 8978 ft 285 kts 302°
2026-05-07 18:17 36.92359 26.82893 9677 ft 290 kts 302°
2026-05-07 18:17 36.93400 26.80731 10455 ft 291 kts 302°
2026-05-07 18:17 36.94471 26.78501 10770 ft 310 kts 301°
2026-05-07 18:17 36.95605 26.76100 10961 ft 332 kts 301°
2026-05-07 18:18 36.96987 26.73698 11145 ft 350 kts 319°
2026-05-07 18:18 36.99135 26.72237 11645 ft 358 kts 346°
2026-05-07 18:18 37.01572 26.72166 12419 ft 359 kts 10°
2026-05-07 18:18 37.03985 26.73048 13073 ft 364 kts 17°
2026-05-07 18:19 37.06404 26.74070 13617 ft 369 kts 16°
2026-05-07 18:19 37.08869 26.75026 14190 ft 373 kts 14°
2026-05-07 18:19 37.11379 26.75888 14819 ft 375 kts 12°
2026-05-07 18:19 37.13926 26.76676 15423 ft 378 kts 11°
2026-05-07 18:20 37.16499 26.77418 16014 ft 381 kts 10°
2026-05-07 18:20 37.19103 26.78141 16585 ft 384 kts
2026-05-07 18:20 37.21727 26.78859 17161 ft 387 kts
2026-05-07 18:20 37.24371 26.79578 17693 ft 390 kts
2026-05-07 18:21 37.27037 26.80305 18222 ft 393 kts
2026-05-07 18:21 37.29727 26.81041 18743 ft 396 kts
2026-05-07 18:21 37.32425 26.81780 19278 ft 398 kts
2026-05-07 18:21 37.35104 26.82516 19782 ft 400 kts
2026-05-07 18:22 37.37860 26.82887 20229 ft 398 kts 352°
2026-05-07 18:22 37.39693 26.82478 20575 ft 395 kts 342°
2026-05-07 18:22 37.42984 26.80590 21220 ft 394 kts 323°
2026-05-07 18:22 37.45116 26.78415 21687 ft 395 kts 318°
2026-05-07 18:23 37.47198 26.76129 22112 ft 398 kts 318°
2026-05-07 18:23 37.49280 26.73812 22521 ft 401 kts 318°
2026-05-07 18:23 37.51379 26.71488 22929 ft 403 kts 318°
2026-05-07 18:23 37.53503 26.69157 23373 ft 405 kts 318°
2026-05-07 18:24 37.55637 26.66831 23796 ft 406 kts 319°
2026-05-07 18:24 37.57790 26.64494 24199 ft 409 kts 319°
2026-05-07 18:24 37.59949 26.62151 24592 ft 410 kts 319°
2026-05-07 18:24 37.62121 26.59795 24938 ft 413 kts 319°
2026-05-07 18:25 37.64278 26.57454 25273 ft 415 kts 319°
2026-05-07 18:25 37.66472 26.55070 25637 ft 417 kts 319°
2026-05-07 18:25 37.68675 26.52674 25946 ft 419 kts 319°
2026-05-07 18:25 37.70893 26.50263 26266 ft 421 kts 319°
2026-05-07 18:26 37.73122 26.47842 26583 ft 423 kts 319°
2026-05-07 18:26 37.75359 26.45410 26889 ft 425 kts 319°
2026-05-07 18:26 37.77605 26.42966 27163 ft 427 kts 319°
2026-05-07 18:26 37.79872 26.40497 27438 ft 430 kts 319°
2026-05-07 18:27 37.82140 26.38025 27742 ft 431 kts 319°
2026-05-07 18:27 37.84417 26.35541 28017 ft 433 kts 319°
2026-05-07 18:27 37.86705 26.33043 28251 ft 436 kts 319°
2026-05-07 18:27 37.88230 26.31375 28432 ft 437 kts 319°
2026-05-07 18:28 37.91281 26.28029 28772 ft 439 kts 319°
2026-05-07 18:28 37.93589 26.25494 29141 ft 438 kts 320°
2026-05-07 18:28 37.95885 26.22968 29548 ft 436 kts 320°
2026-05-07 18:28 37.98176 26.20447 29899 ft 435 kts 320°
2026-05-07 18:29 38.00464 26.17926 30167 ft 436 kts 320°
2026-05-07 18:29 38.02724 26.15437 30630 ft 431 kts 319°
2026-05-07 18:29 38.04971 26.12959 31224 ft 423 kts 319°
2026-05-07 18:29 38.07169 26.10533 31904 ft 414 kts 319°
2026-05-07 18:30 38.09311 26.08159 32517 ft 405 kts 319°
2026-05-07 18:30 38.11416 26.05843 33117 ft 396 kts 319°
2026-05-07 18:30 38.13491 26.03607 33574 ft 389 kts 318°
2026-05-07 18:30 38.15509 26.01347 34052 ft 382 kts 317°
2026-05-07 18:31 38.17486 25.99130 34453 ft 378 kts 317°
2026-05-07 18:31 38.19457 25.96934 34777 ft 375 kts 317°
2026-05-07 18:31 38.21395 25.94783 35088 ft 373 kts 317°
2026-05-07 18:31 38.23350 25.92598 35302 ft 375 kts 317°
2026-05-07 18:32 38.25318 25.90407 35396 ft 378 kts 317°
2026-05-07 18:32 38.27288 25.88176 35565 ft 379 kts 317°
2026-05-07 18:32 38.29242 25.85936 35800 ft 376 kts 316°
2026-05-07 18:32 38.31178 25.83679 35915 ft 378 kts 316°
2026-05-07 18:33 38.33124 25.81431 36110 ft 378 kts 317°
2026-05-07 18:33 38.37030 25.76926 36127 ft 377 kts 316°
2026-05-07 18:34 38.40907 25.72456 36124 ft 377 kts 317°
2026-05-07 18:34 38.44839 25.67990 36124 ft 378 kts 316°
2026-05-07 18:35 38.48741 25.63446 36126 ft 381 kts 316°
2026-05-07 18:35 38.52666 25.58866 36123 ft 383 kts 316°
2026-05-07 18:36 38.56573 25.54319 36128 ft 382 kts 316°
2026-05-07 18:36 38.60510 25.49738 36120 ft 382 kts 316°
2026-05-07 18:37 38.64433 25.45164 36129 ft 382 kts 316°
2026-05-07 18:37 38.68358 25.40581 36120 ft 381 kts 316°
2026-05-07 18:38 38.72266 25.36019 36133 ft 380 kts 316°
2026-05-07 18:38 38.76171 25.31453 36130 ft 379 kts 316°
2026-05-07 18:39 38.80038 25.26920 36126 ft 378 kts 316°
2026-05-07 18:39 38.83917 25.22363 36128 ft 378 kts 315°
2026-05-07 18:40 38.87793 25.17798 36123 ft 378 kts 316°
2026-05-07 18:40 38.91672 25.13237 36119 ft 378 kts 315°
2026-05-07 18:41 38.95553 25.08660 36110 ft 379 kts 315°
2026-05-07 18:41 38.99442 25.04062 36111 ft 379 kts 315°
2026-05-07 18:42 39.03334 24.99457 36113 ft 380 kts 315°
2026-05-07 18:42 39.07207 24.94865 36111 ft 381 kts 315°
2026-05-07 18:43 39.11164 24.90328 36109 ft 382 kts 320°
2026-05-07 18:43 39.15425 24.86219 36107 ft 382 kts 320°
2026-05-07 18:44 39.19709 24.82137 36109 ft 382 kts 320°
2026-05-07 18:44 39.23938 24.78061 36103 ft 382 kts 320°
2026-05-07 18:45 39.28187 24.73958 36106 ft 381 kts 320°
2026-05-07 18:45 39.32422 24.69838 36094 ft 381 kts 320°
2026-05-07 18:46 39.35949 24.66407 36099 ft 380 kts 319°
2026-05-07 18:46 39.40165 24.62305 36103 ft 380 kts 319°
2026-05-07 18:47 39.44380 24.58192 36106 ft 379 kts 319°
2026-05-07 18:47 39.48585 24.54104 36092 ft 378 kts 319°
2026-05-07 18:48 39.52771 24.49988 36097 ft 377 kts 319°
2026-05-07 18:48 39.56948 24.45871 36093 ft 378 kts 319°
2026-05-07 18:49 39.61128 24.41780 36083 ft 376 kts 319°
2026-05-07 18:49 39.65276 24.37732 36076 ft 374 kts 319°
2026-05-07 18:50 39.69412 24.33660 36093 ft 372 kts 319°
2026-05-07 18:50 39.73530 24.29604 36091 ft 370 kts 319°
2026-05-07 18:51 39.77605 24.25538 36083 ft 369 kts 318°
2026-05-07 18:51 39.81700 24.21475 36098 ft 371 kts 318°
2026-05-07 18:52 39.85793 24.17367 36099 ft 372 kts 318°
2026-05-07 18:52 39.89928 24.13287 36099 ft 373 kts 318°
2026-05-07 18:53 39.94035 24.09201 36086 ft 375 kts 317°
2026-05-07 18:53 39.98174 24.05061 36086 ft 377 kts 319°
2026-05-07 18:54 40.02359 24.00933 36088 ft 377 kts 318°
2026-05-07 18:54 40.06553 23.96787 36091 ft 376 kts 319°
2026-05-07 18:55 40.10701 23.92621 36095 ft 375 kts 317°
2026-05-07 18:55 40.14788 23.88476 36104 ft 374 kts 318°
2026-05-07 18:56 40.18920 23.84354 36107 ft 373 kts 317°
2026-05-07 18:56 40.23027 23.80195 36098 ft 373 kts 317°
2026-05-07 18:57 40.27136 23.76053 36096 ft 372 kts 319°
2026-05-07 18:57 40.31275 23.71932 36091 ft 373 kts 318°